TimeMDT,TemperatureF,Dew PointF,Humidity,Sea Level PressureIn,VisibilityMPH,Wind Direction,Wind SpeedMPH,Gust SpeedMPH,PrecipitationIn,Events,Conditions,WindDirDegrees,DateUTC
12:53 AM,42.1,25.0,51,29.44,10.0,SSE,10.4,-,N/A,,Clear,160,2011-11-05 06:53:00
1:53 AM,39.9,25.0,55,29.42,10.0,SSE,15.0,-,N/A,,Clear,160,2011-11-05 07:53:00
2:53 AM,39.2,24.8,56,29.46,10.0,SSE,16.1,-,N/A,,Clear,160,2011-11-05 08:53:00
3:53 AM,41.0,26.1,55,29.38,10.0,SSE,13.8,-,N/A,,Overcast,160,2011-11-05 09:53:00
4:53 AM,37.9,25.0,60,29.40,10.0,WNW,5.8,-,N/A,,Mostly Cloudy,300,2011-11-05 10:53:00
5:53 AM,30.2,24.8,80,29.44,10.0,Calm,Calm,-,N/A,,Clear,0,2011-11-05 11:53:00
6:53 AM,28.9,21.9,75,29.45,10.0,West,9.2,-,N/A,,Clear,280,2011-11-05 12:53:00
7:53 AM,28.0,21.0,75,29.44,10.0,WNW,6.9,-,N/A,,Clear,290,2011-11-05 13:53:00
9:53 AM,30.9,21.0,67,29.44,10.0,NW,10.4,-,N/A,,Partly Cloudy,310,2011-11-05 15:53:00
10:53 AM,32.0,21.0,64,29.44,10.0,NNW,9.2,-,N/A,,Mostly Cloudy,340,2011-11-05 16:53:00
11:53 AM,34.0,21.0,59,29.42,10.0,NW,12.7,-,N/A,,Mostly Cloudy,320,2011-11-05 17:53:00
12:53 PM,36.0,21.9,57,29.39,10.0,NW,17.3,24.2,N/A,,Mostly Cloudy,310,2011-11-05 18:53:00
1:53 PM,35.6,21.2,56,29.37,10.0,NW,20.7,28.8,N/A,,Overcast,310,2011-11-05 19:53:00
2:48 PM,30.2,21.2,69,29.40,10.0,NW,18.4,26.5,N/A,,Mostly Cloudy,310,2011-11-05 20:48:00
2:53 PM,30.9,21.9,69,29.44,10.0,NW,17.3,23.0,N/A,,Overcast,310,2011-11-05 20:53:00
3:53 PM,30.0,21.9,72,29.47,10.0,NNW,23.0,28.8,N/A,,Overcast,330,2011-11-05 21:53:00
4:53 PM,28.9,24.1,82,29.51,4.0,NNW,16.1,-,0.00,Snow,Light Snow,330,2011-11-05 22:53:00
5:25 PM,28.4,24.8,86,29.48,2.5,NNW,12.7,-,0.00,Snow,Light Snow,330,2011-11-05 23:25:00
5:39 PM,28.4,24.8,86,29.48,1.8,NNW,12.7,-,0.00,Snow,Light Snow,330,2011-11-05 23:39:00
5:46 PM,28.4,24.8,86,29.49,3.0,NNW,11.5,20.7,0.00,Snow,Light Snow,330,2011-11-05 23:46:00
5:53 PM,28.0,24.1,85,29.57,5.0,NW,15.0,-,0.00,Snow,Light Snow,320,2011-11-05 23:53:00
6:53 PM,28.9,25.0,85,29.61,6.0,NW,15.0,-,0.00,Snow,Light Snow,310,2011-11-06 00:53:00
7:13 PM,28.4,24.8,86,29.53,2.0,NW,15.0,-,0.00,Snow,Light Snow,310,2011-11-06 01:13:00
7:22 PM,28.4,24.8,86,29.54,1.8,NW,16.1,-,0.01,Snow,Light Snow,310,2011-11-06 01:22:00
7:40 PM,28.4,24.8,86,29.54,2.0,NW,15.0,-,0.01,Snow,Light Snow,310,2011-11-06 01:40:00
7:53 PM,28.0,25.0,88,29.62,4.0,NW,16.1,-,0.01,Snow,Light Snow,310,2011-11-06 01:53:00
8:05 PM,28.4,24.8,86,29.53,6.0,NW,12.7,-,0.00,Snow,Light Snow,310,2011-11-06 02:05:00
8:21 PM,26.6,24.8,93,29.54,9.0,NW,13.8,24.2,0.00,Snow,Light Snow,310,2011-11-06 02:21:00
8:33 PM,26.6,23.0,86,29.55,9.0,WNW,17.3,23.0,0.00,Snow,Light Snow,300,2011-11-06 02:33:00
8:43 PM,26.6,23.0,86,29.55,10.0,WNW,16.1,-,0.00,,Overcast,300,2011-11-06 02:43:00
8:53 PM,26.1,23.0,88,29.65,10.0,WNW,18.4,24.2,0.00,,Overcast,300,2011-11-06 02:53:00
9:22 PM,26.6,21.2,80,29.57,10.0,WNW,19.6,27.6,N/A,,Overcast,300,2011-11-06 03:22:00
9:53 PM,26.1,21.9,84,29.68,10.0,WNW,18.4,27.6,N/A,,Overcast,300,2011-11-06 03:53:00
10:35 PM,26.6,21.2,80,29.60,10.0,WNW,15.0,21.9,N/A,,Overcast,300,2011-11-06 04:35:00
10:53 PM,26.1,21.9,84,29.68,8.0,WNW,13.8,20.7,0.00,Snow,Light Snow,300,2011-11-06 04:53:00
11:53 PM,26.1,21.9,84,29.68,10.0,WNW,13.8,23.0,0.00,,Scattered Clouds,300,2011-11-06 05:53:00